Location: Allie Creek
(37.5926°N, 89.8526°W)
Time: 11:09:51
(UTC+00:00)

USA 81 - Pass Details

Date: 26 September 2023
Orbit: 782 x 789 km, 85.0° (Epoch: 16 October)

Event Time Altitude Azimuth Distance (km) Brightness Sun altitude
Rises 00:58:28 0° 181° (S) 3,255 7.2 -14.0°
Reaches altitude 10° 01:00:48 10° 181° (S) 2,331 6.4 -14.4°
Maximum altitude 01:06:02 86° 94° (E) 790 4.0 -15.4°
Drops below altitude 10° 01:11:19 10° 5° (N) 2,345 6.6 -16.5°
Sets 01:13:40 0° 5° (N) 3,277 7.4 -16.9°
